EJU351H LFBO-LFPO

Flight info

Callsign EJU351H
Flight time N/A
Altitude 34000
Route FISTO DCT PERIG DCT DIBAG DCT TUDRA/N0413F280 DCT BEVOL UT158 AMB
Aircraft A320/M-SDE3FGHIRWY/LB1

Departure

Time N/A
Airport Toulouse-Blagnac Airport (LFBO)

Arrival

Time 2026-05-01 11:54
Airport Paris-Orly Airport (LFPO)
Time Latitude Longitude Altitude Speed Heading
2026-05-01 11:49 48.63757 2.08556 3728 ft 164 kts 64°
2026-05-01 11:49 48.64295 2.10061 3517 ft 162 kts 64°
2026-05-01 11:49 48.64831 2.11561 3306 ft 163 kts 64°
2026-05-01 11:49 48.65354 2.13021 3111 ft 153 kts 64°
2026-05-01 11:50 48.65846 2.14400 2889 ft 145 kts 63°
2026-05-01 11:50 48.66319 2.15727 2704 ft 144 kts 64°
2026-05-01 11:50 48.66798 2.17070 2518 ft 143 kts 64°
2026-05-01 11:50 48.67260 2.18368 2325 ft 141 kts 63°
2026-05-01 11:51 48.67735 2.19698 2136 ft 142 kts 63°
2026-05-01 11:51 48.68192 2.20984 1936 ft 141 kts 63°
2026-05-01 11:51 48.68655 2.22282 1746 ft 140 kts 62°
2026-05-01 11:51 48.69113 2.23572 1572 ft 140 kts 63°
2026-05-01 11:52 48.69576 2.24873 1401 ft 142 kts 63°
2026-05-01 11:52 48.70045 2.26192 1178 ft 140 kts 63°
2026-05-01 11:52 48.70501 2.27478 1003 ft 137 kts 63°
2026-05-01 11:52 48.70948 2.28746 809 ft 136 kts 63°
2026-05-01 11:53 48.71394 2.29994 643 ft 134 kts 61°
2026-05-01 11:53 48.71837 2.31231 469 ft 132 kts 62°
2026-05-01 11:53 48.72263 2.32457 328 ft 130 kts 62°
2026-05-01 11:53 48.72655 2.33558 303 ft 99 kts 61°
2026-05-01 11:54 48.72843 2.34077 308 ft 25 kts 62°
2026-05-01 11:54 48.72937 2.34353 303 ft 31 kts 66°
2026-05-01 11:54 48.73002 2.34668 300 ft 32 kts 82°
2026-05-01 11:54 48.73032 2.35005 301 ft 33 kts 81°
2026-05-01 11:55 48.73019 2.35220 304 ft 17 kts 108°
2026-05-01 11:55 48.72930 2.35307 304 ft 16 kts 151°
2026-05-01 11:55 48.72856 2.35433 303 ft 17 kts 149°
2026-05-01 11:55 48.72756 2.35502 304 ft 14 kts 120°
2026-05-01 11:56 48.72769 2.35630 303 ft 10 kts 74°
2026-05-01 11:56 48.72786 2.35724 301 ft 9 kts 74°
2026-05-01 11:56 48.72788 2.35734 301 ft 0 kts 74°
2026-05-01 11:56 48.72789 2.35737 302 ft 0 kts 74°
2026-05-01 11:57 48.72790 2.35741 302 ft 0 kts 74°
2026-05-01 11:57 48.72791 2.35746 303 ft 1 kts 74°
2026-05-01 11:57 48.72792 2.35753 304 ft 1 kts 74°
2026-05-01 11:57 48.72793 2.35760 304 ft 1 kts 74°
2026-05-01 11:58 48.72795 2.35768 303 ft 1 kts 64°
2026-05-01 11:58 48.72798 2.35772 302 ft 1 kts 52°
2026-05-01 11:58 48.72818 2.35805 305 ft 4 kts 47°
2026-05-01 11:59 48.72832 2.35828 303 ft 0 kts 45°
2026-05-01 11:59 48.72834 2.35830 303 ft 1 kts 45°
2026-05-01 11:59 48.72838 2.35836 304 ft 1 kts 45°
2026-05-01 12:00 48.72839 2.35838 300 ft 0 kts 45°